TimeIST,TemperatureF,Dew PointF,Humidity,Sea Level PressureIn,VisibilityMPH,Wind Direction,Wind SpeedMPH,Gust SpeedMPH,PrecipitationIn,Events,Conditions,WindDirDegrees,DateUTC
12:00 AM,64.4,48.2,56,29.98,1.6,Calm,Calm,-,N/A,,Haze,0,2012-11-11 18:30:00
1:00 AM,62.6,48.2,59,29.95,1.6,Calm,Calm,-,N/A,,Haze,0,2012-11-11 19:30:00
2:00 AM,68.0,46.4,46,29.95,1.6,Variable,3.5,-,N/A,,Haze,0,2012-11-11 20:30:00
2:30 AM,62,48,51,29.93,1,Calm,Calm,,,,Haze,,2012-11-11 21:00:00
3:00 AM,66.2,44.6,46,29.95,1.6,NNE,4.6,-,N/A,,Haze,20,2012-11-11 21:30:00
4:30 AM,60.8,44.6,55,29.95,1.6,Calm,Calm,-,N/A,,Haze,0,2012-11-11 23:00:00
5:00 AM,60.8,48.2,63,29.95,1.6,Calm,Calm,-,N/A,,Haze,0,2012-11-11 23:30:00
5:30 AM,59,48,58,29.94,1,Calm,Calm,,,,Haze,,2012-11-12 00:00:00
7:00 AM,59.0,48.2,67,29.98,1.6,Calm,Calm,-,N/A,,Haze,0,2012-11-12 01:30:00
8:00 AM,68.0,48.2,49,30.01,1.2,Calm,Calm,-,N/A,,Smoke,0,2012-11-12 02:30:00
8:30 AM,70,51,41,29.98,1,Calm,Calm,,,,Smoke,,2012-11-12 03:00:00
9:00 AM,75.2,44.6,34,30.04,1.6,Calm,Calm,-,N/A,,Smoke,0,2012-11-12 03:30:00
10:00 AM,78.8,46.4,32,30.04,1.9,SSE,3.5,-,N/A,,Haze,150,2012-11-12 04:30:00
11:00 AM,80.6,44.6,28,30.04,1.9,Variable,1.2,-,N/A,,Haze,0,2012-11-12 05:30:00
11:30 AM,83,45,17,29.95,1,Calm,Calm,,,,Haze,,2012-11-12 06:00:00
12:00 PM,84.2,44.6,25,30.01,1.9,Variable,2.3,-,N/A,,Haze,0,2012-11-12 06:30:00
1:00 PM,84.2,41.0,22,29.98,1.9,Variable,2.3,-,N/A,,Haze,0,2012-11-12 07:30:00
2:00 PM,84.2,37.4,19,29.95,2.5,Calm,Calm,-,N/A,,Haze,0,2012-11-12 08:30:00
2:30 PM,85,39,11,29.88,2,NW,4.6,,,,,320,2012-11-12 09:00:00
2:30 PM,86.0,37.4,18,29.95,2.5,Variable,4.6,-,N/A,,Haze,0,2012-11-12 09:00:00
3:00 PM,84.2,37.4,19,29.95,2.5,WSW,5.8,-,N/A,,Haze,240,2012-11-12 09:30:00
4:00 PM,84.2,37.4,19,29.95,2.5,West,3.5,-,N/A,,Haze,270,2012-11-12 10:30:00
5:00 PM,82.4,37.4,20,29.95,2.5,Calm,Calm,-,N/A,,Haze,0,2012-11-12 11:30:00
5:30 PM,81,42,15,29.87,2,Calm,Calm,,,,Haze,,2012-11-12 12:00:00
5:30 PM,80.6,39.2,23,29.95,2.5,Calm,Calm,-,N/A,,Haze,0,2012-11-12 12:00:00
7:00 PM,73.4,42.8,33,29.98,1.2,Calm,Calm,-,N/A,,Smoke,0,2012-11-12 13:30:00
7:30 PM,73.4,42.8,33,30.01,1.2,Calm,Calm,-,N/A,,Smoke,0,2012-11-12 14:00:00
8:00 PM,71.6,46.4,41,30.01,1.2,Calm,Calm,-,N/A,,Smoke,0,2012-11-12 14:30:00
8:30 PM,68,52,45,29.98,1,NE,4.6,,,,Smoke,50,2012-11-12 15:00:00
9:00 PM,73.4,39.2,29,30.01,1.6,NE,4.6,-,N/A,,Smoke,40,2012-11-12 15:30:00
10:00 PM,68.0,41.0,37,30.04,1.6,Calm,Calm,-,N/A,,Smoke,0,2012-11-12 16:30:00
11:00 PM,68.0,41.0,37,30.04,1.6,Calm,Calm,-,N/A,,Smoke,0,2012-11-12 17:30:00